• In Belgien
  • Länderverzeichnis
  • Für 7 Tage
  • Wassertemperatur
  • Satellitenkarten
  • Wetterkarte
  • Widgets
  • user-avatar
    Anmelden

    Stündliche Wetter Hrasdan

    Heute, 21 Oktober, Sonntag

    Zeit Temperatur Niederschläge Wind Luftdruck Luftfeuchtigkeit
    00:00 +9°C° 0.1 mm 1 m/S 613 mmHg 70%
    01:00 +9°C° 0.1 mm 1 m/S 613 mmHg 71%
    02:00 +9°C° 0.1 mm 1 m/S 613 mmHg 72%
    03:00 +8°C° 0.1 mm 1 m/S 613 mmHg 73%
    04:00 +8°C° 0 mm 1 m/S 613 mmHg 73%
    05:00 +8°C° 0 mm 1 m/S 613 mmHg 74%
    06:00 +8°C° 0 mm 1 m/S 613 mmHg 74%
    07:00 +9°C° 0 mm 1 m/S 613 mmHg 68%
    08:00 +11°C° 0 mm 1 m/S 614 mmHg 61%
    09:00 +13°C° 0 mm 2 m/S 615 mmHg 54%
    10:00 +14°C° 0 mm 2 m/S 615 mmHg 51%
    11:00 +15°C° 0 mm 2 m/S 615 mmHg 47%
    12:00 +16°C° 0 mm 3 m/S 616 mmHg 43%
    13:00 +16°C° 0 mm 2 m/S 615 mmHg 42%
    14:00 +16°C° 0 mm 2 m/S 615 mmHg 42%
    15:00 +16°C° 0 mm 2 m/S 615 mmHg 41%
    16:00 +15°C° 0 mm 2 m/S 615 mmHg 47%
    17:00 +13°C° 0 mm 1 m/S 614 mmHg 53%
    18:00 +11°C° 0 mm 1 m/S 613 mmHg 58%
    19:00 +11°C° 0 mm 1 m/S 613 mmHg 59%
    20:00 +11°C° 0 mm 1 m/S 614 mmHg 60%
    21:00 +10°C° 0 mm 1 m/S 614 mmHg 60%
    22:00 +10°C° 0 mm 1 m/S 614 mmHg 62%
    23:00 +8°C° 0 mm 0 m/S 613 mmHg 63%

    Morgen, 22 Oktober, Montag

    Zeit Temperatur Niederschläge Wind Luftdruck Luftfeuchtigkeit
    00:00 +8°C° 0 mm 0 m/S 613 mmHg 64%
    01:00 +8°C° 0 mm 0 m/S 613 mmHg 65%
    02:00 +9°C° 0 mm 1 m/S 613 mmHg 65%
    03:00 +8°C° 0 mm 1 m/S 613 mmHg 66%
    04:00 +8°C° 0 mm 1 m/S 613 mmHg 66%
    05:00 +8°C° 0 mm 1 m/S 613 mmHg 67%
    06:00 +8°C° 0 mm 1 m/S 613 mmHg 67%
    07:00 +9°C° 0.1 mm 1 m/S 614 mmHg 63%
    08:00 +10°C° 0.1 mm 2 m/S 615 mmHg 59%
    09:00 +12°C° 0.1 mm 2 m/S 615 mmHg 56%
    10:00 +13°C° 0 mm 2 m/S 616 mmHg 53%
    11:00 +14°C° 0 mm 2 m/S 616 mmHg 50%
    12:00 +15°C° 0 mm 2 m/S 616 mmHg 47%
    13:00 +15°C° 0 mm 2 m/S 616 mmHg 47%
    14:00 +15°C° 0 mm 2 m/S 616 mmHg 46%
    15:00 +15°C° 0 mm 2 m/S 615 mmHg 45%
    16:00 +14°C° 0 mm 2 m/S 615 mmHg 52%
    17:00 +12°C° 0 mm 1 m/S 614 mmHg 58%
    18:00 +9°C° 0 mm 0 m/S 614 mmHg 65%
    19:00 +10°C° 0.1 mm 1 m/S 614 mmHg 66%
    20:00 +10°C° 0.1 mm 1 m/S 614 mmHg 67%
    21:00 +9°C° 0.1 mm 1 m/S 614 mmHg 68%
    22:00 +9°C° 0.1 mm 1 m/S 614 mmHg 68%
    23:00 +9°C° 0.1 mm 1 m/S 614 mmHg 68%

    übermorgen, 23 Oktober, Dienstag

    Zeit Temperatur Niederschläge Wind Luftdruck Luftfeuchtigkeit
    00:00 +9°C° 0.1 mm 1 m/S 614 mmHg 68%
    01:00 +9°C° 0.1 mm 1 m/S 614 mmHg 69%
    02:00 +8°C° 0.1 mm 1 m/S 614 mmHg 70%
    03:00 +8°C° 0.1 mm 1 m/S 614 mmHg 71%
    04:00 +8°C° 0 mm 1 m/S 613 mmHg 71%
    05:00 +8°C° 0 mm 1 m/S 613 mmHg 71%
    06:00 +8°C° 0 mm 1 m/S 613 mmHg 71%
    07:00 +9°C° 0 mm 1 m/S 614 mmHg 66%
    08:00 +10°C° 0 mm 2 m/S 615 mmHg 60%
    09:00 +13°C° 0 mm 2 m/S 616 mmHg 54%
    10:00 +14°C° 0 mm 2 m/S 616 mmHg 51%
    11:00 +14°C° 0 mm 3 m/S 616 mmHg 48%
    12:00 +14°C° 0 mm 3 m/S 616 mmHg 45%
    13:00 +14°C° 0 mm 3 m/S 615 mmHg 44%
    14:00 +14°C° 0 mm 3 m/S 615 mmHg 44%
    15:00 +14°C° 0 mm 3 m/S 614 mmHg 44%
    16:00 +14°C° 0 mm 2 m/S 614 mmHg 50%
    17:00 +12°C° 0 mm 2 m/S 613 mmHg 57%
    18:00 +10°C° 0 mm 1 m/S 613 mmHg 63%
    19:00 +10°C° 0 mm 1 m/S 613 mmHg 63%
    20:00 +10°C° 0 mm 1 m/S 613 mmHg 62%
    21:00 +10°C° 0 mm 1 m/S 613 mmHg 62%
    22:00 +10°C° 0 mm 1 m/S 613 mmHg 62%
    23:00 +9°C° 0 mm 1 m/S 613 mmHg 63%

    24 Oktober, Mittwoch

    Zeit Temperatur Niederschläge Wind Luftdruck Luftfeuchtigkeit
    00:00 +9°C° 0 mm 1 m/S 612 mmHg 63%
    01:00 +8°C° 0 mm 2 m/S 612 mmHg 64%
    02:00 +8°C° 0 mm 2 m/S 612 mmHg 65%
    03:00 +7°C° 0 mm 2 m/S 612 mmHg 66%
    04:00 +7°C° 0 mm 2 m/S 612 mmHg 68%
    05:00 +7°C° 0 mm 2 m/S 611 mmHg 69%
    06:00 +7°C° 0 mm 2 m/S 611 mmHg 70%
    07:00 +8°C° 0 mm 2 m/S 612 mmHg 66%
    08:00 +10°C° 0 mm 3 m/S 612 mmHg 61%
    09:00 +11°C° 0 mm 3 m/S 613 mmHg 57%
    10:00 +12°C° 0 mm 4 m/S 612 mmHg 54%
    11:00 +13°C° 0 mm 4 m/S 612 mmHg 51%
    12:00 +14°C° 0 mm 4 m/S 612 mmHg 49%
    13:00 +14°C° 0.2 mm 4 m/S 612 mmHg 50%
    14:00 +13°C° 0.2 mm 4 m/S 611 mmHg 52%
    15:00 +13°C° 0.2 mm 4 m/S 611 mmHg 54%
    16:00 +12°C° 0.3 mm 3 m/S 610 mmHg 59%
    17:00 +11°C° 0.3 mm 3 m/S 610 mmHg 63%
    18:00 +10°C° 0.3 mm 3 m/S 609 mmHg 68%
    19:00 +10°C° 0.5 mm 2 m/S 609 mmHg 71%
    20:00 +9°C° 0.5 mm 2 m/S 609 mmHg 73%
    21:00 +9°C° 0.5 mm 2 m/S 609 mmHg 76%
    22:00 +9°C° 1.7 mm 2 m/S 609 mmHg 78%
    23:00 +9°C° 1.7 mm 2 m/S 608 mmHg 80%

    25 Oktober, Donnerstag

    Zeit Temperatur Niederschläge Wind Luftdruck Luftfeuchtigkeit
    00:00 +8°C° 1.7 mm 2 m/S 608 mmHg 82%
    01:00 +8°C° 0.8 mm 2 m/S 608 mmHg 82%
    02:00 +8°C° 0.8 mm 3 m/S 608 mmHg 82%
    03:00 +8°C° 0.8 mm 3 m/S 608 mmHg 82%
    04:00 +8°C° 0.1 mm 3 m/S 607 mmHg 82%
    05:00 +7°C° 0.1 mm 3 m/S 607 mmHg 82%
    06:00 +7°C° 0.1 mm 3 m/S 607 mmHg 81%
    07:00 +7°C° 0.2 mm 4 m/S 607 mmHg 76%
    08:00 +8°C° 0.2 mm 4 m/S 607 mmHg 71%
    09:00 +10°C° 0.2 mm 5 m/S 608 mmHg 66%
    10:00 +12°C° 0.1 mm 5 m/S 608 mmHg 61%
    11:00 +13°C° 0.1 mm 6 m/S 608 mmHg 56%
    12:00 +14°C° 0.1 mm 7 m/S 608 mmHg 51%
    13:00 +14°C° 0.2 mm 6 m/S 607 mmHg 52%
    14:00 +14°C° 0.2 mm 6 m/S 607 mmHg 54%
    15:00 +14°C° 0.2 mm 5 m/S 606 mmHg 55%
    16:00 +12°C° 0.3 mm 5 m/S 606 mmHg 62%
    17:00 +11°C° 0.3 mm 4 m/S 606 mmHg 69%
    18:00 +10°C° 0.3 mm 3 m/S 605 mmHg 76%
    19:00 +10°C° 0.2 mm 3 m/S 605 mmHg 77%
    20:00 +9°C° 0.2 mm 3 m/S 605 mmHg 78%
    21:00 +9°C° 0.2 mm 3 m/S 605 mmHg 80%
    22:00 +9°C° 0.5 mm 3 m/S 605 mmHg 81%
    23:00 +9°C° 0.5 mm 3 m/S 605 mmHg 83%

    26 Oktober, Freitag

    Zeit Temperatur Niederschläge Wind Luftdruck Luftfeuchtigkeit
    00:00 +8°C° 0.5 mm 4 m/S 604 mmHg 84%
    01:00 +7°C° 0.1 mm 4 m/S 604 mmHg 84%
    02:00 +8°C° 0.1 mm 3 m/S 604 mmHg 84%
    03:00 +8°C° 0.1 mm 3 m/S 604 mmHg 84%
    04:00 +7°C° 0.1 mm 4 m/S 604 mmHg 84%
    05:00 +7°C° 0.1 mm 4 m/S 604 mmHg 84%
    06:00 +7°C° 0.1 mm 4 m/S 604 mmHg 84%
    07:00 +8°C° 0 mm 5 m/S 605 mmHg 77%
    08:00 +9°C° 0 mm 6 m/S 606 mmHg 71%
    09:00 +10°C° 0 mm 7 m/S 606 mmHg 64%
    10:00 +10°C° 0.5 mm 7 m/S 606 mmHg 65%
    11:00 +10°C° 0.5 mm 6 m/S 606 mmHg 66%
    12:00 +10°C° 0.5 mm 6 m/S 607 mmHg 67%
    13:00 +9°C° 1.4 mm 5 m/S 606 mmHg 70%
    14:00 +10°C° 1.4 mm 4 m/S 606 mmHg 72%
    15:00 +9°C° 1.4 mm 3 m/S 606 mmHg 74%
    16:00 +8°C° 1.3 mm 3 m/S 606 mmHg 78%
    17:00 +8°C° 1.3 mm 2 m/S 606 mmHg 82%
    18:00 +7°C° 1.3 mm 2 m/S 607 mmHg 85%
    19:00 +6°C° 0.6 mm 2 m/S 607 mmHg 86%
    20:00 +6°C° 0.6 mm 2 m/S 607 mmHg 87%
    21:00 +5°C° 0.6 mm 2 m/S 608 mmHg 88%
    22:00 +5°C° 1.1 mm 2 m/S 608 mmHg 88%
    23:00 +4°C° 1.1 mm 2 m/S 609 mmHg 88%
    Mehr zeigen